Weather History for Birmingham, United Kingdom

Change the Weather History Date:

Sunday, March 31, 2013

  Actual Average Record
Temperature  
Mean Temperature 31 °F -  
Max Temperature 41 °F 53 °F 62 °F (2004)
Min Temperature 21 °F 38 °F 21 °F (2013)
Degree Days  
Heating Degree Days 34    
Moisture  
Dew Point 24 °F    
Average Humidity 71    
Maximum Humidity 93    
Minimum Humidity 49    
Precipitation  
Precipitation 0.00 in 0.06 in - ()
Sea Level Pressure  
Sea Level Pressure 29.95 in    
Wind  
Wind Speed 5 mph ()    
Max Wind Speed 14 mph    
Max Gust Speed -    
Visibility 6.2 miles    
Events      
Averages and records for this station are not official NWS values.
T = Trace of Precipitation, MM = Missing Value Source: Averaged Metar Reports

Daily Weather History Graph

Daily Weather History Graph

Search for Another Location

Airport:

Trip Planner

Search our weather history database for the weather conditions in past years. The results will help you decide how hot, cold, wet, or windy it might be!

Date:

Astronomy

Mar. 31, 2013 Rise Set
Actual Time 6:43 AM BST 7:39 PM BST
Civil Twilight 6:09 AM BST 8:14 PM BST
Nautical Twilight 5:27 AM BST 8:56 PM BST
Astronomical Twilight 4:42 AM BST 9:41 PM BST
Moon 12:00 AM GMT (3/31) 8:44 AM BST (3/31)
Length of Visible Light 14h 05m
Length of Day
12h 56m
Waning Gibbous, 80% of the Moon is Illuminated
Mar 31
Waning Gibbous
Apr 3
Last Quarter
Apr 10
New
Apr 18
First Quarter
Apr 25
Full

Hourly Weather History & Observations

Time (BST) Temp. Windchill Dew Point Humidity Pressure Visibility Wind Dir Wind Speed Gust Speed Precip Events Conditions
12:20 AM 24.8 °F - 23.0 °F 93% 29.98 in - Calm Calm - N/A   Clear
12:50 AM 23.0 °F - 21.2 °F 93% 29.98 in - Calm Calm - N/A   Clear
2:20 AM 24.8 °F - 23.0 °F 93% 29.98 in - Calm Calm - N/A   Clear
2:50 AM 23.0 °F - 21.2 °F 93% 29.98 in 6.2 mi Calm Calm - N/A   Unknown
3:20 AM 26.6 °F - 23.0 °F 86% 29.98 in 6.2 mi WNW 2.3 mph - N/A   Unknown
3:50 AM 23.0 °F - 21.2 °F 93% 29.98 in 6.2 mi Calm Calm - N/A   Partly Cloudy
4:20 AM 23.0 °F - 21.2 °F 93% 29.98 in 6.2 mi NNE 2.3 mph - N/A   Partly Cloudy
4:50 AM 23.0 °F - 21.2 °F 93% 29.98 in 6.2 mi Calm Calm - N/A   Partly Cloudy
5:20 AM 21.2 °F - 19.4 °F 93% 29.98 in - Calm Calm - N/A   Clear
5:50 AM 21.2 °F - 19.4 °F 93% 29.98 in - NE 2.3 mph - N/A   Clear
6:20 AM 23.0 °F - 19.4 °F 86% 29.98 in - Variable 2.3 mph - N/A   Clear
6:50 AM 21.2 °F - 19.4 °F 93% 29.98 in - NW 2.3 mph - N/A   Clear
7:20 AM 23.0 °F - 21.2 °F 93% 29.98 in - WNW 2.3 mph - N/A   Clear
7:50 AM 24.8 °F 20.5 °F 23.0 °F 93% 29.98 in 6.2 mi West 3.5 mph - N/A   Scattered Clouds
8:20 AM 30.2 °F - 26.6 °F 86% 29.98 in 6.2 mi NNW 2.3 mph - N/A   Scattered Clouds
8:50 AM 33.8 °F 30.8 °F 26.6 °F 75% 29.98 in 6.2 mi Variable 3.5 mph - N/A   Scattered Clouds
9:20 AM 35.6 °F 31.7 °F 26.6 °F 70% 29.98 in - East 4.6 mph - N/A   Clear
9:50 AM 35.6 °F 28.6 °F 23.0 °F 60% 29.98 in 6.2 mi ESE 9.2 mph - N/A   Partly Cloudy
10:20 AM 37.4 °F 30.3 °F 23.0 °F 56% 29.98 in 6.2 mi East 10.4 mph - N/A   Mostly Cloudy
10:50 AM 35.6 °F 29.2 °F 21.2 °F 56% 29.98 in 6.2 mi East 8.1 mph - N/A   Mostly Cloudy
11:20 AM 37.4 °F 29.8 °F 21.2 °F 52% 29.98 in 6.2 mi ESE 11.5 mph - N/A   Mostly Cloudy
11:50 AM 39.2 °F 31.2 °F 21.2 °F 49% 29.98 in 6.2 mi East 13.8 mph - N/A   Mostly Cloudy
12:20 PM 37.4 °F 29.3 °F 23.0 °F 56% 29.98 in 6.2 mi East 12.7 mph - N/A   Mostly Cloudy
12:50 PM 37.4 °F 29.8 °F 23.0 °F 56% 29.98 in 6.2 mi East 11.5 mph - N/A   Mostly Cloudy
1:20 PM 39.2 °F 32.0 °F 23.0 °F 52% 29.98 in 6.2 mi East 11.5 mph - N/A   Mostly Cloudy
1:50 PM 39.2 °F 33.0 °F 23.0 °F 52% 29.98 in 6.2 mi ESE 9.2 mph - N/A   Mostly Cloudy
2:20 PM 39.2 °F 32.0 °F 23.0 °F 52% 29.95 in 6.2 mi East 11.5 mph - N/A   Mostly Cloudy
2:50 PM 39.2 °F 32.5 °F 23.0 °F 52% 29.95 in 6.2 mi East 10.4 mph - N/A   Mostly Cloudy
3:20 PM 41.0 °F 34.7 °F 23.0 °F 49% 29.95 in 6.2 mi ENE 10.4 mph - N/A   Mostly Cloudy
3:50 PM 39.2 °F 32.5 °F 23.0 °F 52% 29.95 in 6.2 mi East 10.4 mph - N/A   Mostly Cloudy
4:20 PM 39.2 °F 33.0 °F 23.0 °F 52% 29.92 in 6.2 mi East 9.2 mph - N/A   Mostly Cloudy
4:50 PM 39.2 °F 33.0 °F 24.8 °F 56% 29.92 in 6.2 mi East 9.2 mph - N/A   Mostly Cloudy
5:20 PM 39.2 °F 32.0 °F 23.0 °F 52% 29.92 in 6.2 mi East 11.5 mph - N/A   Mostly Cloudy
5:50 PM 39.2 °F 33.0 °F 23.0 °F 52% 29.92 in 6.2 mi East 9.2 mph - N/A   Mostly Cloudy
6:20 PM 39.2 °F 32.5 °F 23.0 °F 52% 29.92 in 6.2 mi East 10.4 mph - N/A   Mostly Cloudy
6:50 PM 37.4 °F 32.1 °F 23.0 °F 56% 29.92 in 6.2 mi East 6.9 mph - N/A   Mostly Cloudy
7:20 PM 37.4 °F 30.3 °F 24.8 °F 60% 29.92 in 6.2 mi ENE 10.4 mph - N/A   Mostly Cloudy
7:50 PM 37.4 °F 30.3 °F 24.8 °F 60% 29.92 in 6.2 mi East 10.4 mph - N/A   Mostly Cloudy
8:20 PM 35.6 °F 28.0 °F 24.8 °F 65% 29.92 in 6.2 mi East 10.4 mph - N/A   Mostly Cloudy
8:50 PM 35.6 °F 28.0 °F 26.6 °F 70% 29.92 in 6.2 mi East 10.4 mph - N/A   Mostly Cloudy
9:20 PM 35.6 °F 29.2 °F 26.6 °F 70% 29.92 in 6.2 mi East 8.1 mph - N/A   Mostly Cloudy
9:50 PM 33.8 °F 26.4 °F 26.6 °F 75% 29.92 in 6.2 mi East 9.2 mph - N/A   Scattered Clouds
10:20 PM 33.8 °F 27.0 °F 28.4 °F 81% 29.92 in 6.2 mi ENE 8.1 mph - N/A   Mostly Cloudy
10:50 PM 33.8 °F 25.8 °F 28.4 °F 81% 29.92 in 6.2 mi ENE 10.4 mph - N/A   Mostly Cloudy
11:20 PM 33.8 °F 26.4 °F 28.4 °F 81% 29.92 in 6.2 mi ENE 9.2 mph - N/A   Mostly Cloudy
11:50 PM 33.8 °F 26.4 °F 28.4 °F 81% 29.92 in 6.2 mi East 9.2 mph - N/A   Mostly Cloudy
12:20 AM 33.8 °F 25.8 °F 28.4 °F 81% 29.92 in 6.2 mi East 10.4 mph - N/A   Mostly Cloudy
12:50 AM 33.8 °F 26.4 °F 28.4 °F 81% 29.92 in 6.2 mi East 9.2 mph - N/A   Mostly Cloudy